COSMOS 2251 DEB, 34004

Orbit data source: Space-Track

COSMOS 2251 DEB, 34004 is space debris in LEO originally from a launch on Wed, 16 Jun 1993 UTC launched from the Plesetsk Missile And Space Complex (PKMTR). The debris from Iridium 33, an American commercial communications satellite, has been tracked extensively since its accidental collision with the defunct Russian satellite Cosmos 2251 in 2009. This event, occurring at high speed in low Earth orbit (LEO), generated thousands of pieces of space debris, significantly increasing the risk of further collisions. The Iridium 33 debris cloud has impacted space traffic management and orbital debris mitigation strategies, making it a subject of ongoing study in space situational awareness.

Loading next visibility...
Identifier
34004, 1993-036GP
Orbit
LEO
Country
Flag of CISCIS
Related business
Manufacturer
Unknown
Mission
Spacecraft
Bus & Motor
Unknown
Mass
Unknown
Launch date (UTC)
1993-06-16 (33 years ago)
Launch vehicle
Unknown
Launch site
Plesetsk Missile And Space Complex (PKMTR)
Object type
Payload
Rocket body
Debris
Shape & HBR
Unknown shape, 0.1 m
Radar Cross Section
Medium (>0.1 m² and <1 m²)

Expand to show TLE details & history
Last TLE update: 3 days ago

TLE from 3 days ago
0 COSMOS 2251 DEB
1 34004U 93036GP  26261.11690578  .00002419  00000-0  61462-3 0  9994
2 34004  74.0339 148.2493 0030053  98.6929 261.7638 14.51017876920806
Epoch: 2026-09-18T02:48Z
TLE epoch observation values (Epoch: 2026-09-18T02:48:20.659Z)
Latitude
-0.00003°
Longitude
109.11881°
Altitude
728.075 km
Speed
7.49 km/s
True Right ascension
09h 52m 59s
True Declination
0° 00' 00"
Sunlit
Object was in daylight at epoch
Visualization orbit readout
Latitude
Unknown
Longitude
Unknown
Altitude
Unknown
Speed
Unknown
Apparent Right ascension
Unknown
Apparent Declination
Unknown
Sunlit
N/A
Visualization observer readout
Local Sidereal Time
09:47:32
Azimuth
Unknown
Elevation
Unknown
Doppler factor
Unknown
Orbital elements
Apogee altitude
741.265 km
Perigee altitude
698.602 km
Semi-major axis
7,098.071 km
Eccentricity
0.00301
Inclination
74.0339°
RAAN
148.2493°
Arg. of periapsis
98.6929°
True anomaly
261.42316°
Mean anomaly
261.7638°
Eccentric anomaly
261.59346°
Mean motion
3.62938 °/min
Orbital period
99.19 mins
BSTAR
0.00061462

Documentation

Showing up to 5 results
|